Погода в Ижевске

Хотите узнать прогноз погоды в Ижевске? Тогда Вам сюда: Погода в Ижевске

Поиск расширенной информации на нашем сайте:

Полезная информация:

Новости сайта



02.01.2020
Опубликован Долгосрочный прогноз погоды по городам России и ближнего зарубежья на январь 2020 года.
Карты: Прогноз на январь и февраль 2020 года, Сравнение прогнозируемой аномалии приземной температуры воздуха на январь 2020 года по разным моделям.




Погода в Ижевске - сегодня

Время (UTC), дата Ветер
(°,м/с) 
Видим.   Явления Облачность Т
(°С)
Тd
(°С)
f(%) Тe
(°С)
Pmin
(гПа)
dP
(гПа)
Po
(мм)
O2
(г/м3)
Тmin Tmax R s Состояние
почвы
03 30.11.20 110 (В) 3-4{05}  2000 м  дымка  10/10 200 м 
[St]
-5.1 -5.8 95 -7  1050.1  0.4  772  318  -5.5      11  равномерный
сухой снег
100% 
06 30.11.20 130 (ЮВ) 1-3{04}  4000 м  дымка  10/10 200 м 
[St]
-4.6 -5.5 93 -4  1050.6  0.6  772  317           
09 30.11.20 120 (ЮВ) 3-4{06}  4000 м  слаб. снег  10/10 200 м 
[Frnb|Ns]
-4.2 -5.1 93 -6  1050.8  0.2  772  317           
12 30.11.20 120 (ЮВ) 3-4{05}  10 км  слаб. снег  10/8 300 м средняя 
[Sc|Ac As]
-3.8 -4.6 94 -6  1050.5  -0.3  772  316           
15 30.11.20 130 (ЮВ) 2-3{04}  10 км  {снег}  10/10 300 м 
[Sc]
-3.8 -4.6 94 -5  1050.2  -0.3  772  316    -3  0.0     
18 30.11.20 160 (Ю) 2-3{05}  10 км  {снег}  10/10 300 м 
[Sc]
-3.9 -5.1 91 -5  1050.1  -0.1  772  316           
21 30.11.20 150 (ЮВ) 2-4{06}  10 км    10/10 300 м 
[Sc]
-4.3 -5.5 91 -6  1050  -0.1  772  317           
00 01.12.20 160 (Ю) 1-2{04}  10 км    9/9 1000 м 
[Sc]
-5.4 -6.4 93 -5  1049.9  -0.2  771  318           
03 01.12.20 тихо () -1{02}  10 км    9/9 1000 м 
[Sc]
-5.4 -7.2 87 -5  1049.7  -0.2  771  318  -5.5      10  равномерный
сухой снег
100% 
06 01.12.20 170 (Ю) 2-3{03}  10 км    9/9 600 м 
[Sc]
-4.6 -6.6 86 -6  1049.4  -0.2  771  317  -6.4         
09 01.12.20 170 (Ю) 2-3{04}  10 км    10/10 600 м 
[Sc]
-3.3 -5.4 85 -4  1048.5  -0.7  771  315           
12 01.12.20 160 (Ю) 2-4{06}  10 км  слаб. снег  10/10 300 м 
[Sc]
-4 -5.9 87 -5  1048.3  -0.3  770  316           
15 01.12.20 170 (Ю) 2-3{05}  10 км  {снег}  10/10 300 м 
[Sc]
-4.6 -6.6 86 -6  1047.7  -0.6  770  316    -3.1  0.0     
21 01.12.20 170 (Ю) 2-4{05}  10 км    10/10 600 м 
[Sc]
-5.9 -8.6 81 -7  1046.4  -0.6  769  318           
00 02.12.20 160 (Ю) 3-4{06}  10 км    10/8 600 м средняя 
[Sc|Ac As]
-6.8 -8.8 86 -9  1046.1  -0.4  769  319           
03 02.12.20 220 (ЮЗ) 3-4{05}  10 км  слаб. снег  10/8 600 м средняя 
[Sc|Ac As]
-7.4 -9.1 88 -10  1045.3  -0.8  768  319  -7.5    0.0  10  равномерный
сухой снег
100% 
06 02.12.20 250 (З) 2-3{04}  4000 м  слаб. снег  10/8 300 м средняя 
[Sc|Ac As]
-8.4 -9.9 89 -10  1044.5  -0.9  767  320  -8.5         
09 02.12.20 180 (Ю) 1-3{05}  10 км  слаб. снег  10/0 средняя, верхняя 
[Ac As|Ci]
-8.5 -12.3 74 -8  1043.6  -0.8  767  320           
12 02.12.20 170 (Ю) 1-2{04}  10 км  слаб. снег  10/8 600 м средняя 
[Sc|Ac As]
-8.9 -11.8 79 -9  1043.1  -0.5  766  320           
15 02.12.20 220 (ЮЗ) 1-3{04}  10 км  {снег}  10/10 300 м 
[Sc]
-9.5 -12.1 81 -9  1042.8  -0.4  766  321    -7.3  0.0     
18 02.12.20 210 (ЮЗ) 1-2{03}  10 км  {снег}  10/10 300 м 
[Sc]
-9.8 -11.5 87 -10  1042.3  -0.5  766  321           
21 02.12.20 210 (ЮЗ) 1-2{03}  10 км    10/10 200 м 
[St]
-9.9 -11.6 87 -10  1042.4  0.1  766  321           
00 03.12.20 тихо () -1{03}  10 км    10/10 200 м 
[St]
-9.8 -11.5 87 -10  1042.7  0.3  766  321           
03 03.12.20 тихо () -1{02}  10 км  слаб. снег  10/6 300 м средняя 
[Sc|Ac As]
-9.7 -11.4 87 -10  1042.2  -0.5  766  321  -10    0.0  10  равномерный
сухой снег
100% 
06 03.12.20 тихо () -1{02}  4000 м  слаб. снег  10/6 300 м средняя 
[Sc|Ac As]
-10.2 -11.5 90 -10  1043.6  1.4  767  322  -10.5         
Время (UTC), дата Ветер
(°,м/с) 
Видим.   Явления Облачность Т
(°С)
Тd
(°С)
f(%) Тe
(°С)
Pmin
(гПа)
dP
(гПа)
Po
(мм)
O2
(г/м3)
Тmin Tmax R s Состояние
почвы

Для получения пояснительной информации подведите курсор к названию столбца.

ПОГОДА в Ижевске - архив

Всё, что Вы хотите узнать о погоде в Ижевске - удобно и подробно!

Выберите нужную дату (начиная с 1 января 2019* года) и нажмите кнопку "Найти".
Будут отображены архивные сводки погоды по пункту Ижевск, начиная с указанной даты.


Отображать данные в формате CSV (для использования в таблицах Excel)


Внимание! Наш архив погоды предназначен исключительно для личного некоммерческого использования в познавательных целях. Если Вам необходимы официальные справки о состоянии погоды (для производственных, юридических, коммерческих и т.п. целей), обращайтесь в органы Росгидромета.

*Примечание: данная дата относится к архиву по метеостанциям СССР (Россия, СНГ, Балтия).
Архив по метеостанциям Зарубежной Европы и Азии (кроме Китая) хранится 10 дней, по другим регионам земного шара (Китай, Африка, Америка, Австралия, Океания) - 1 день.

Ижевск - район местоположения метеостанции


Название, широта, долгота, высота метеостанции:
Ижевск 56.8°ш. 53.4°д. 159 м над ур. моря [Российская Федерация]

Дополнительная информация

В oтличие oт бoльшинства пoгoдных сайтoв мы публикуем пoдрoбную метеoинфoрмацию в детальнoм прoфессиoнальнoм фoрмате.

Характеристики температуры и влажнoсти вoздуха измеряются на высoте 2 м в тени вдали oт зданий и деревьев.
Скoрoсть ветра измеряется на высoте 10 м (на урoвне рoста челoвека скoрoсть ветра ниже в 1.5-2 раза). Если метеoстанция нахoдится в гoрoде или в лесу, тo скoрoсть ветра занижена на 2-4 м/с пo сравнению с oткрытым местoм. Скoрoсть ветра над акватoриями крупных рек и oзёр, а также на вершинах хoлмoв на 2-5 м/с выше, чем в oбычных услoвиях.
Атмoсфернoе давление в разных тoчках местнoсти мoжет значительнo oтличаться oт давления на метеoстанции, в зависимoсти oт услoвий рельефа (при пoдъёме на 10 м давление пoнижается примернo на 1 мм рт.ст.).